EW6614 Weather Reports


Display with metric or nautical units.
time (UTC)temp
F
wind
direction
speed
MPH
gust
MPH
rain 1hr
in
rain 24hr
in
rain mn
in
humidity
%
barometer
mb
20260905023107 82 0 0.0 0.0 0.00 0.00 0.00 60 1013.1
20260905023016 82 360 0.0 0.0 0.00 0.00 0.00 71 1012.5
20260905021606 82 0 0.0 0.0 0.00 0.00 0.00 59 1012.8
20260905021527 82 360 0.0 0.0 0.00 0.00 0.00 71 1012.1
20260905020014 83 360 0.0 0.0 0.00 0.00 0.00 70 1011.9
20260905014601 83 0 0.0 0.0 0.00 0.00 0.00 58 1012.3
20260905014513 83 360 0.0 0.0 0.00 0.00 0.00 69 1011.6
20260905013103 84 360 0.0 3.0 0.00 0.00 0.00 58 1012.1
20260905013015 84 360 1.0 3.0 0.00 0.00 0.00 70 1011.5
20260905011606 85 0 0.0 0.0 0.00 0.00 0.00 56 1012.1
20260905011513 85 188 0.0 0.0 0.00 0.00 0.00 68 1011.4
20260905010109 86 0 0.0 0.0 0.00 0.00 0.00 54 1012.0
20260905010013 86 188 0.0 0.0 0.00 0.00 0.00 66 1011.3
20260905004603 88 0 0.0 3.0 0.00 0.00 0.00 54 1012.0
20260905004511 88 360 0.0 3.0 0.00 0.00 0.00 66 1011.2
20260905003102 89 188 0.0 2.0 0.00 0.00 0.00 52 1011.9
20260905003011 89 188 0.0 2.0 0.00 0.00 0.00 63 1011.2
20260905001606 90 188 1.0 3.0 0.00 0.00 0.00 48 1011.9
20260905001512 90 188 1.0 3.0 0.00 0.00 0.00 60 1011.3
20260905000107 91 188 2.0 4.0 0.00 0.00 0.00 47 1011.8
20260905000011 91 188 2.0 4.0 0.00 0.00 0.00 58 1011.2
20260904234601 92 189 2.0 5.0 0.00 0.00 0.00 45 1011.7
20260904234509 92 189 1.0 5.0 0.00 0.00 0.00 56 1011.0
20260904233104 92 173 2.0 8.0 0.00 0.00 0.00 45 1011.6
20260904233009 92 165 2.0 7.0 0.00 0.00 0.00 56 1010.9
20260904231604 93 178 4.0 8.0 0.00 0.00 0.00 44 1011.5
20260904231513 93 178 3.0 7.0 0.00 0.00 0.00 55 1010.8
20260904230112 93 172 1.0 6.0 0.00 0.00 0.00 42 1011.2
20260904230008 94 172 2.0 5.0 0.00 0.00 0.00 53 1010.7
20260904224600 94 162 1.0 6.0 0.00 0.00 0.00 41 1011.3
20260904224507 94 162 1.0 5.0 0.00 0.00 0.00 52 1010.7
20260904223106 94 125 3.0 7.0 0.00 0.00 0.00 40 1011.3
20260904223006 94 118 3.0 7.0 0.00 0.00 0.00 52 1010.8
20260904221610 94 252 3.0 7.0 0.00 0.00 0.00 40 1011.3
20260904221508 95 181 3.0 7.0 0.00 0.00 0.00 52 1010.6
20260904220121 95 171 3.0 6.0 0.00 0.00 0.00 38 1011.3
20260904220004 95 171 3.0 5.0 0.00 0.00 0.00 50 1010.7
20260904214602 95 162 1.0 7.0 0.00 0.00 0.00 38 1011.4
20260904214502 95 157 1.0 7.0 0.00 0.00 0.00 50 1010.8
20260904213105 94 174 2.0 6.0 0.00 0.00 0.00 39 1011.7
20260904213100 94 174 2.0 5.0 0.00 0.00 0.00 50 1011.0
20260904211608 95 207 3.0 6.0 0.00 0.00 0.00 41 1011.7
20260904211601 95 205 3.0 6.0 0.00 0.00 0.00 50 1011.1
20260904210105 94 124 2.0 6.0 0.00 0.00 0.00 40 1011.8
20260904210056 94 124 1.0 6.0 0.00 0.00 0.00 52 1011.1
20260904204606 94 163 3.0 7.0 0.00 0.00 0.00 41 1012.1
20260904204554 94 163 4.0 7.0 0.00 0.00 0.00 52 1011.4
20260904203108 93 0 0.0 5.0 0.00 0.00 0.00 41 1012.3
20260904203051 93 137 0.0 4.0 0.00 0.00 0.00 53 1011.7
20260904201601 93 0 0.0 6.0 0.00 0.00 0.00 44 1012.7
20260904201549 93 150 0.0 6.0 0.00 0.00 0.00 55 1012.0
20260904200113 94 103 0.0 5.0 0.00 0.00 0.00 43 1012.7
20260904200047 94 104 1.0 6.0 0.00 0.00 0.00 54 1012.0
20260904194610 93 334 1.0 5.0 0.00 0.00 0.00 43 1013.0
20260904194558 93 334 1.0 5.0 0.00 0.00 0.00 55 1012.4
20260904193100 93 185 2.0 5.0 0.00 0.00 0.00 45 1013.0
20260904193044 93 185 1.0 5.0 0.00 0.00 0.00 56 1012.6
20260904191602 92 0 0.0 6.0 0.00 0.00 0.00 45 1013.2
20260904191543 92 96 0.0 4.0 0.00 0.00 0.00 57 1012.7
20260904190109 93 337 2.0 4.0 0.00 0.00 0.00 46 1013.5
20260904190042 93 337 2.0 4.0 0.00 0.00 0.00 58 1013.0
20260904184612 93 132 2.0 7.0 0.00 0.00 0.00 46 1013.6
20260904184540 93 132 2.0 5.0 0.00 0.00 0.00 58 1013.0
20260904183103 91 223 1.0 9.0 0.00 0.00 0.00 49 1013.7
20260904183036 91 223 0.0 8.0 0.00 0.00 0.00 60 1013.2
20260904181603 91 0 3.0 7.0 0.00 0.00 0.00 48 1013.8
20260904181538 91 115 3.0 6.0 0.00 0.00 0.00 59 1013.4
20260904180117 90 103 1.0 5.0 0.00 0.00 0.00 49 1014.1
20260904180046 90 103 1.0 5.0 0.00 0.00 0.00 60 1013.6
20260904174620 90 159 3.0 9.0 0.00 0.00 0.00 46 1014.3
20260904174541 90 156 3.0 9.0 0.00 0.00 0.00 57 1013.9
20260904173109 89 250 2.0 4.0 0.00 0.00 0.00 48 1014.4
20260904173037 89 250 2.0 4.0 0.00 0.00 0.00 59 1014.0
20260904171606 88 274 0.0 3.0 0.00 0.00 0.00 49 1014.8
20260904171600 88 274 0.0 3.0 0.00 0.00 0.00 60 1014.4
20260904170105 89 274 0.0 6.0 0.00 0.00 0.00 48 1015.0
20260904170028 89 274 1.0 5.0 0.00 0.00 0.00 59 1014.7
20260904164606 89 165 1.0 8.0 0.00 0.00 0.00 49 1015.1
20260904164524 88 163 1.0 8.0 0.00 0.00 0.00 60 1014.8
20260904163105 87 187 1.0 4.0 0.00 0.00 0.00 50 1015.1
20260904163024 86 187 2.0 3.0 0.00 0.00 0.00 61 1014.8
20260904161607 87 188 2.0 5.0 0.00 0.00 0.00 49 1015.1
20260904161523 87 188 2.0 5.0 0.00 0.00 0.00 60 1014.8
20260904160109 87 236 0.0 4.0 0.00 0.00 0.00 52 1015.1
20260904160028 87 241 1.0 4.0 0.00 0.00 0.00 64 1014.7
20260904154604 86 0 0.0 5.0 0.00 0.00 0.00 52 1015.1
20260904154533 86 248 0.0 5.0 0.00 0.00 0.00 64 1014.8
20260904153130 86 0 3.0 7.0 0.00 0.00 0.00 53 1014.9
20260904153019 86 355 4.0 6.0 0.00 0.00 0.00 64 1014.8
20260904151607 85 136 2.0 6.0 0.00 0.00 0.00 54 1014.9
20260904151515 85 137 1.0 5.0 0.00 0.00 0.00 65 1014.7
20260904150100 84 164 2.0 6.0 0.00 0.00 0.00 53 1014.8
20260904150014 84 164 3.0 6.0 0.00 0.00 0.00 65 1014.6
20260904144604 84 202 0.0 0.0 0.00 0.01 0.00 52 1015.0
20260904144511 84 115 0.0 0.0 0.00 0.01 0.00 64 1014.8
20260904143112 82 0 0.0 3.0 0.00 0.01 0.00 51 1015.0
20260904143014 82 115 0.0 3.0 0.00 0.01 0.00 63 1014.8
20260904141603 81 0 0.0 3.0 0.00 0.01 0.00 50 1014.9
20260904141503 81 114 0.0 3.0 0.00 0.01 0.00 61 1014.7
20260904140108 79 0 0.0 3.0 0.00 0.01 0.00 51 1014.8
20260904134610 78 0 0.0 3.0 0.00 0.01 0.00 52 1014.8
20260904134602 78 115 0.0 3.0 0.00 0.01 0.00 64 1014.7
20260904133105 76 0 1.0 4.0 0.00 0.01 0.00 53 1014.6
20260904133100 76 116 1.0 4.0 0.00 0.01 0.00 65 1014.6
20260904131603 75 0 0.0 0.0 0.00 0.01 0.00 53 1014.5
20260904131548 75 134 0.0 0.0 0.00 0.01 0.00 65 1014.3
20260904130104 73 0 0.0 0.0 0.00 0.01 0.00 52 1014.3
20260904130047 73 134 0.0 0.0 0.00 0.01 0.00 64 1014.0
20260904124600 72 0 0.0 0.0 0.00 0.01 0.00 51 1014.1
20260904124545 72 360 0.0 0.0 0.00 0.01 0.00 63 1014.0
20260904123100 71 0 0.0 0.0 0.00 0.01 0.00 52 1014.1
20260904123044 71 360 0.0 0.0 0.00 0.01 0.00 63 1013.9
20260904121603 71 0 0.0 0.0 0.00 0.01 0.00 51 1013.9
20260904121544 71 360 0.0 0.0 0.00 0.01 0.00 63 1013.7
20260904120111 71 0 0.0 0.0 0.00 0.01 0.00 51 1013.9
20260904120054 71 360 0.0 0.0 0.00 0.01 0.00 62 1013.6
20260904114600 71 0 0.0 0.0 0.00 0.01 0.00 51 1013.8
20260904114539 71 360 0.0 0.0 0.00 0.01 0.00 62 1013.5
20260904113104 71 0 0.0 0.0 0.00 0.01 0.00 51 1013.7
20260904113038 71 360 0.0 0.0 0.00 0.01 0.00 63 1013.3
20260904111608 71 0 0.0 0.0 0.00 0.01 0.00 51 1013.6
20260904111538 71 360 0.0 0.0 0.00 0.01 0.00 62 1013.2
20260904110037 71 360 0.0 0.0 0.00 0.01 0.00 62 1013.2
20260904104602 71 0 0.0 0.0 0.00 0.01 0.00 51 1013.6
20260904104600 71 360 0.0 0.0 0.00 0.01 0.00 62 1013.2
20260904103104 71 0 0.0 0.0 0.00 0.01 0.00 51 1013.7
20260904103037 71 360 0.0 0.0 0.00 0.01 0.00 63 1013.4
20260904101607 71 0 0.0 0.0 0.00 0.01 0.00 52 1013.7
20260904101540 71 360 0.0 0.0 0.00 0.01 0.00 63 1013.3
20260904100103 71 0 0.0 0.0 0.00 0.01 0.00 51 1013.6
20260904100033 71 360 0.0 0.0 0.00 0.01 0.00 63 1013.3
20260904094611 72 0 0.0 0.0 0.00 0.01 0.00 52 1013.5
20260904094547 72 360 0.0 0.0 0.00 0.01 0.00 63 1013.2
20260904093113 72 0 0.0 0.0 0.00 0.01 0.00 51 1013.5
20260904093031 72 360 0.0 0.0 0.00 0.01 0.00 63 1013.1
20260904091601 72 0 0.0 0.0 0.00 0.01 0.00 51 1013.3
20260904091530 72 360 0.0 0.0 0.00 0.01 0.00 63 1012.9
20260904090029 72 360 0.0 0.0 0.00 0.01 0.00 63 1013.1
20260904084601 72 0 0.0 0.0 0.00 0.02 0.00 52 1013.4
20260904084528 72 360 0.0 0.0 0.00 0.02 0.00 64 1013.0
20260904083103 72 0 0.0 0.0 0.00 0.02 0.00 53 1013.3
20260904083028 72 360 0.0 0.0 0.00 0.02 0.00 64 1012.9
20260904081603 72 0 0.0 0.0 0.00 0.02 0.00 53 1013.2
20260904081526 72 360 0.0 0.0 0.00 0.02 0.00 64 1012.9
20260904080104 73 0 0.0 0.0 0.00 0.02 0.00 53 1013.3
20260904080027 73 360 0.0 0.0 0.00 0.02 0.00 64 1012.9
20260904074601 73 0 0.0 0.0 0.00 0.02 0.00 53 1013.3
20260904074523 73 360 0.0 0.0 0.00 0.02 0.00 65 1012.8
20260904073103 73 0 0.0 0.0 0.00 0.02 0.00 53 1013.2
20260904073029 73 360 0.0 0.0 0.00 0.02 0.00 65 1012.8
20260904071606 73 0 0.0 0.0 0.00 0.02 0.00 53 1013.2
20260904071521 73 360 0.0 0.0 0.00 0.02 0.00 65 1012.7
20260904070106 73 0 0.0 0.0 0.00 0.02 0.00 54 1013.3
20260904070036 73 360 0.0 0.0 0.00 0.02 0.00 65 1012.9
20260904064600 74 0 0.0 0.0 0.00 0.02 0.00 55 1013.2
20260904064519 74 360 0.0 0.0 0.00 0.02 0.00 66 1012.9
20260904063102 74 0 0.0 0.0 0.00 0.02 0.00 54 1013.1
20260904063018 74 360 0.0 0.0 0.00 0.02 0.00 66 1012.7
20260904061605 74 0 0.0 0.0 0.00 0.02 0.00 55 1013.1
20260904061525 74 360 0.0 0.0 0.00 0.02 0.00 67 1012.7
20260904060104 74 0 0.0 0.0 0.00 0.02 0.00 55 1013.1
20260904060015 74 360 0.0 0.0 0.00 0.02 0.00 67 1012.6
20260904054605 74 0 0.0 0.0 0.00 0.02 0.00 56 1012.9
20260904054517 74 360 0.0 0.0 0.00 0.02 0.00 67 1012.4
20260904053141 74 0 0.0 0.0 0.00 0.02 0.00 56 1013.1
20260904053012 74 360 0.0 0.0 0.00 0.02 0.00 67 1012.5
20260904051604 75 0 0.0 0.0 0.00 0.02 0.00 57 1012.8
20260904051507 75 360 0.0 0.0 0.00 0.02 0.00 69 1012.4
20260904050109 75 360 0.0 0.0 0.00 0.02 0.00 68 1012.3
20260904044603 75 0 0.0 0.0 0.00 0.03 0.02 57 1012.5
20260904044501 75 360 0.0 0.0 0.00 0.03 0.02 68 1012.1
20260904043109 76 360 0.0 0.0 0.00 0.03 0.02 69 1012.2
20260904043103 76 0 0.0 0.0 0.00 0.03 0.02 58 1012.6
20260904041606 76 360 0.0 0.0 0.00 0.03 0.02 69 1012.4
20260904040107 76 0 0.0 0.0 0.00 0.03 0.02 57 1012.9
20260904034606 77 0 0.0 0.0 0.00 0.04 0.02 58 1013.0
20260904034558 77 360 0.0 0.0 0.00 0.04 0.02 69 1012.5
20260904033122 77 0 0.0 0.0 0.00 0.04 0.02 58 1013.0
20260904033106 77 360 0.0 0.0 0.00 0.04 0.02 69 1012.6
20260904031604 77 0 0.0 0.0 0.00 0.04 0.02 60 1013.1
20260904031558 77 360 0.0 0.0 0.00 0.04 0.02 72 1012.5
20260904030104 78 0 0.0 0.0 0.00 0.04 0.02 60 1013.2
20260904030057 78 360 0.0 0.0 0.00 0.04 0.02 71 1012.6
20260904024615 78 360 0.0 0.0 0.00 0.10 0.02 71 1012.5
20260904024605 78 0 0.0 0.0 0.00 0.10 0.02 59 1013.1